GW5679 Weather Reports


Display with metric or nautical units.
time (UTC)temp
F
wind
direction
speed
MPH
gust
MPH
rain 1hr
in
rain 24hr
in
rain mn
in
humidity
%
barometer
mb
20260904193250 92 97 1.0 3.0 0.00 0.27 0.27 61 1012.4
20260904192746 92 66 3.0 4.0 0.00 0.27 0.27 62 1012.7
20260904192241 92 254 3.0 4.0 0.00 0.27 0.27 62 1012.6
20260904191738 91 296 4.0 4.0 0.00 0.27 0.27 65 1012.6
20260904191234 93 215 2.0 3.0 0.00 0.27 0.27 63 1012.5
20260904190730 91 180 0.0 1.0 0.00 0.27 0.27 65 1012.9
20260904190226 90 185 1.0 2.0 0.00 0.27 0.27 66 1013.0
20260904185722 89 185 0.0 1.0 0.00 0.27 0.27 72 1013.1
20260904185222 88 156 1.0 3.0 0.00 0.27 0.27 74 1013.4
20260904184721 86 213 2.0 3.0 0.00 0.27 0.27 77 1013.4
20260904184217 85 171 1.0 2.0 0.00 0.27 0.27 81 1013.3
20260904183713 83 142 0.0 1.0 0.00 0.27 0.27 85 1013.2
20260904183213 82 271 2.0 3.0 0.00 0.27 0.27 86 1013.5
20260904182708 81 187 2.0 2.0 0.00 0.27 0.27 88 1013.7
20260904182203 81 187 2.0 2.0 0.00 0.27 0.27 88 1013.9
20260904181659 81 217 2.0 4.0 0.07 0.27 0.27 88 1014.0
20260904181158 80 158 0.0 0.0 0.24 0.27 0.27 88 1014.3
20260904180654 80 169 0.0 0.0 0.59 0.26 0.26 86 1014.1
20260904180149 81 149 1.0 4.0 0.31 0.21 0.21 84 1014.3
20260904175648 82 161 4.0 7.0 0.00 0.16 0.16 83 1014.6
20260904175146 82 203 3.0 6.0 0.00 0.16 0.16 79 1014.3
20260904174641 82 147 5.0 6.0 0.00 0.16 0.16 82 1014.6
20260904174138 82 151 0.0 0.0 0.00 0.16 0.16 83 1014.1
20260904173633 81 181 0.0 0.0 0.00 0.16 0.16 83 1014.0
20260904173128 81 151 1.0 2.0 0.00 0.16 0.16 84 1014.1
20260904172625 81 161 0.0 1.0 0.00 0.16 0.16 84 1014.1
20260904172123 81 186 0.0 0.0 0.00 0.16 0.16 85 1014.2
20260904171619 81 49 3.0 3.0 0.07 0.16 0.16 86 1014.3
20260904171114 80 110 2.0 2.0 0.07 0.16 0.16 87 1014.2
20260904170610 80 59 2.0 2.0 0.00 0.15 0.15 86 1014.4
20260904170106 80 273 2.0 4.0 0.12 0.15 0.15 86 1014.2
20260904165605 79 261 3.0 6.0 0.59 0.15 0.15 85 1014.1
20260904165104 79 253 2.0 6.0 0.61 0.12 0.12 84 1014.2
20260904164559 81 238 5.0 13.0 0.24 0.05 0.05 80 1013.9
20260904164055 83 190 2.0 4.0 0.00 0.01 0.01 77 1014.1
20260904163554 84 164 10.0 11.0 0.00 0.01 0.01 73 1014.0
20260904163050 85 209 9.0 11.0 0.00 0.01 0.01 69 1014.2
20260904162550 85 170 6.0 9.0 0.00 0.01 0.01 71 1014.1
20260904162046 88 193 7.0 11.0 0.00 0.01 0.01 69 1014.1
20260904161545 88 152 3.0 4.0 0.00 0.01 0.01 73 1014.0
20260904161041 88 126 4.0 7.0 0.00 0.01 0.01 73 1013.8
20260904160536 88 123 3.0 6.0 0.00 0.01 0.01 73 1013.9
20260904160032 89 106 4.0 7.0 0.00 0.01 0.01 72 1013.6
20260904155531 89 158 0.0 2.0 0.00 0.01 0.01 72 1013.5
20260904155026 90 136 3.0 8.0 0.00 0.01 0.01 71 1013.5
20260904154520 91 162 2.0 2.0 0.00 0.01 0.01 70 1013.6
20260904154015 92 118 2.0 4.0 0.00 0.01 0.01 68 1013.6
20260904153514 93 170 0.0 2.0 0.00 0.01 0.01 65 1013.5
20260904153011 93 143 0.0 3.0 0.00 0.01 0.01 66 1013.2
20260904152506 92 171 2.0 3.0 0.00 0.01 0.01 67 1013.3
20260904152001 91 117 0.0 2.0 0.00 0.01 0.01 67 1013.4
20260904151457 89 154 1.0 3.0 0.00 0.01 0.01 70 1013.4
20260904150956 89 124 1.0 3.0 0.00 0.01 0.01 73 1013.3
20260904150451 89 136 1.0 2.0 0.00 0.01 0.01 74 1013.3
20260904145950 90 122 1.0 3.0 0.00 0.01 0.01 73 1013.2
20260904145446 91 195 0.0 2.0 0.00 0.01 0.01 71 1013.2
20260904144941 91 129 0.0 3.0 0.00 0.01 0.01 71 1013.3
20260904144436 91 125 1.0 3.0 0.00 0.01 0.01 71 1013.0
20260904143932 91 136 3.0 3.0 0.00 0.01 0.01 72 1013.2
20260904143428 90 132 2.0 3.0 0.00 0.01 0.01 74 1013.2
20260904142925 90 187 2.0 3.0 0.00 0.01 0.01 74 1013.2
20260904142421 89 109 4.0 4.0 0.00 0.01 0.01 74 1013.0
20260904141915 89 156 1.0 2.0 0.00 0.01 0.01 75 1013.1
20260904141410 88 167 1.0 3.0 0.00 0.01 0.01 77 1013.0
20260904140907 88 158 2.0 3.0 0.00 0.01 0.01 77 1013.0
20260904140406 88 134 3.0 4.0 0.00 0.01 0.01 76 1012.9
20260904135906 87 161 0.0 2.0 0.00 0.01 0.01 79 1012.9
20260904135400 88 145 2.0 4.0 0.00 0.01 0.01 77 1013.0
20260904134857 88 125 2.0 3.0 0.00 0.01 0.01 78 1013.2
20260904134356 87 130 1.0 2.0 0.00 0.01 0.01 80 1013.0
20260904133850 86 155 0.0 2.0 0.00 0.01 0.01 81 1013.0
20260904133346 86 124 1.0 3.0 0.00 0.01 0.01 81 1012.8
20260904132841 86 131 0.0 2.0 0.00 0.01 0.01 83 1012.9
20260904132336 85 168 0.0 1.0 0.00 0.01 0.01 85 1013.1
20260904131835 84 107 1.0 3.0 0.00 0.01 0.01 86 1013.1
20260904131331 83 134 1.0 3.0 0.00 0.01 0.01 87 1013.0
20260904130831 83 141 0.0 2.0 0.00 0.01 0.01 89 1012.9
20260904130330 82 122 1.0 3.0 0.00 0.01 0.01 89 1012.7
20260904125826 82 152 1.0 2.0 0.00 0.01 0.01 89 1012.8
20260904125322 82 144 0.0 1.0 0.00 0.01 0.01 89 1012.8
20260904124821 82 98 2.0 2.0 0.00 0.01 0.01 89 1012.5
20260904124318 82 138 0.0 2.0 0.00 0.01 0.01 90 1012.4
20260904123813 82 155 0.0 0.0 0.00 0.01 0.01 90 1012.5
20260904123308 82 151 0.0 0.0 0.00 0.01 0.01 90 1012.5
20260904122803 82 154 0.0 1.0 0.00 0.01 0.01 90 1012.3
20260904122306 82 139 0.0 2.0 0.00 0.01 0.01 90 1012.2
20260904121758 82 150 0.0 1.0 0.00 0.01 0.01 91 1012.4
20260904121254 81 152 0.0 2.0 0.00 0.01 0.01 91 1012.2
20260904120750 81 151 0.0 0.0 0.00 0.01 0.01 91 1012.1
20260904120245 81 158 0.0 2.0 0.00 0.01 0.01 91 1011.9
20260904115741 81 143 0.0 2.0 0.00 0.01 0.01 91 1011.9
20260904115236 81 147 0.0 0.0 0.00 0.01 0.01 91 1012.0
20260904114730 81 137 1.0 2.0 0.00 0.01 0.01 91 1012.2
20260904114230 81 150 0.0 1.0 0.00 0.01 0.01 91 1011.9
20260904113725 81 164 0.0 0.0 0.00 0.01 0.01 91 1011.9
20260904113224 81 160 0.0 0.0 0.00 0.01 0.01 91 1012.2
20260904112719 81 159 0.0 0.0 0.00 0.01 0.01 91 1012.1
20260904112215 81 103 0.0 3.0 0.00 0.01 0.01 91 1012.0
20260904111711 81 133 0.0 0.0 0.00 0.01 0.01 91 1012.2
20260904111206 81 162 0.0 0.0 0.00 0.01 0.01 91 1012.0
20260904110702 81 129 2.0 2.0 0.00 0.01 0.01 91 1012.0
20260904110200 81 143 1.0 1.0 0.00 0.01 0.01 91 1012.1
20260904105655 81 145 0.0 0.0 0.00 0.01 0.01 91 1012.1
20260904105151 81 141 0.0 2.0 0.00 0.01 0.01 91 1012.0
20260904104646 81 140 0.0 0.0 0.00 0.01 0.01 91 1011.9
20260904104141 81 139 0.0 0.0 0.00 0.01 0.01 91 1011.8
20260904103638 81 152 0.0 0.0 0.00 0.01 0.01 91 1011.8
20260904103133 81 153 0.0 0.0 0.00 0.01 0.01 91 1011.9
20260904102629 81 171 0.0 0.0 0.00 0.01 0.01 91 1011.6
20260904102124 81 158 0.0 0.0 0.00 0.01 0.01 90 1011.6
20260904101621 81 158 0.0 0.0 0.00 0.01 0.01 90 1011.7
20260904101116 81 157 0.0 0.0 0.00 0.01 0.01 90 1011.5
20260904100612 81 159 0.0 0.0 0.00 0.01 0.01 89 1011.7
20260904100106 82 172 0.0 0.0 0.00 0.01 0.01 89 1011.4
20260904095601 81 169 0.0 0.0 0.00 0.01 0.01 88 1011.5
20260904095056 82 162 0.0 0.0 0.00 0.01 0.01 87 1011.4
20260904094550 82 155 0.0 0.0 0.07 0.01 0.01 87 1011.5
20260904094046 82 164 0.0 0.0 0.07 0.01 0.01 87 1011.4
20260904093543 82 191 1.0 2.0 0.00 0.00 0.00 86 1011.2
20260904093042 82 183 2.0 2.0 0.00 0.00 0.00 86 1011.3
20260904092538 82 150 1.0 2.0 0.00 0.00 0.00 86 1011.4
20260904092035 82 151 2.0 3.0 0.00 0.00 0.00 85 1011.4
20260904091531 82 159 1.0 2.0 0.00 0.00 0.00 85 1011.4
20260904091030 82 194 2.0 3.0 0.00 0.00 0.00 85 1011.4
20260904090526 83 182 2.0 2.0 0.00 0.00 0.00 85 1011.5
20260904090021 83 157 4.0 4.0 0.00 0.00 0.00 85 1011.4
20260904085516 82 165 2.0 3.0 0.00 0.00 0.00 85 1011.4
20260904085016 82 192 1.0 3.0 0.00 0.00 0.00 85 1011.4
20260904084512 82 155 3.0 3.0 0.00 0.00 0.00 85 1011.4
20260904084008 83 139 1.0 4.0 0.00 0.00 0.00 85 1011.4
20260904083504 83 191 3.0 4.0 0.00 0.00 0.00 85 1011.5
20260904082959 83 152 1.0 1.0 0.00 0.00 0.00 85 1011.6
20260904082454 83 162 1.0 2.0 0.00 0.00 0.00 85 1011.5
20260904081949 83 165 3.0 3.0 0.00 0.00 0.00 85 1011.6
20260904081445 83 151 3.0 4.0 0.00 0.00 0.00 85 1011.5
20260904080941 82 154 2.0 3.0 0.00 0.00 0.00 85 1011.5
20260904080436 82 183 3.0 3.0 0.00 0.00 0.00 85 1011.5
20260904075931 82 164 3.0 4.0 0.00 0.00 0.00 85 1011.5
20260904075427 82 176 1.0 2.0 0.00 0.00 0.00 85 1011.5
20260904074925 83 178 0.0 0.0 0.00 0.00 0.00 85 1011.7
20260904074421 83 172 1.0 2.0 0.00 0.00 0.00 85 1011.3
20260904073916 83 180 1.0 2.0 0.00 0.00 0.00 85 1011.5
20260904073412 83 169 3.0 3.0 0.00 0.00 0.00 85 1011.4
20260904072907 83 171 1.0 2.0 0.00 0.00 0.00 85 1011.7
20260904072402 83 150 1.0 2.0 0.00 0.00 0.00 85 1011.7
20260904071857 83 153 3.0 3.0 0.00 0.00 0.00 85 1011.7
20260904071353 83 187 1.0 3.0 0.00 0.00 0.00 85 1011.8
20260904070847 83 203 1.0 3.0 0.00 0.00 0.00 84 1011.9
20260904070346 83 165 3.0 4.0 0.00 0.00 0.00 84 1011.8
20260904065841 83 146 1.0 2.0 0.00 0.00 0.00 84 1011.7
20260904065338 83 174 2.0 4.0 0.00 0.00 0.00 84 1011.8
20260904064832 83 172 3.0 4.0 0.00 0.00 0.00 84 1011.7
20260904064328 83 152 2.0 3.0 0.00 0.00 0.00 84 1011.8
20260904063819 83 195 4.0 4.0 0.00 0.00 0.00 84 1011.9
20260904063314 83 195 2.0 3.0 0.00 0.00 0.00 84 1011.9
20260904062809 83 155 3.0 6.0 0.00 0.00 0.00 84 1011.7
20260904062306 83 146 4.0 6.0 0.00 0.00 0.00 84 1011.8
20260904061801 83 200 3.0 3.0 0.00 0.00 0.00 84 1011.8
20260904061257 83 151 3.0 7.0 0.00 0.00 0.00 85 1011.8
20260904060754 83 138 4.0 6.0 0.00 0.00 0.00 85 1011.8
20260904060249 83 187 2.0 6.0 0.00 0.00 0.00 85 1012.1
20260904055744 83 150 3.0 6.0 0.00 0.00 0.00 85 1011.9
20260904055244 83 148 2.0 4.0 0.00 0.00 0.00 85 1011.9
20260904054740 83 163 2.0 3.0 0.00 0.00 0.00 85 1012.0
20260904054236 83 163 5.0 6.0 0.00 0.00 0.00 85 1011.8
20260904053731 83 147 4.0 6.0 0.00 0.00 0.00 85 1011.9
20260904053230 83 186 3.0 4.0 0.00 0.00 0.00 85 1011.9
20260904052727 83 172 1.0 3.0 0.00 0.00 0.00 85 1011.9
20260904052223 83 148 4.0 4.0 0.00 0.00 0.00 85 1011.9
20260904051719 83 144 3.0 6.0 0.00 0.00 0.00 85 1011.9
20260904051214 83 153 5.0 6.0 0.00 0.00 0.00 86 1011.7
20260904050714 83 177 4.0 7.0 0.00 0.00 0.00 85 1011.9
20260904050211 83 136 3.0 6.0 0.00 0.00 0.00 85 1011.8
20260904045710 83 151 3.0 4.0 0.00 0.08 0.08 85 1011.9
20260904045205 83 120 2.0 4.0 0.00 0.08 0.08 85 1011.8
20260904044700 83 141 2.0 8.0 0.00 0.08 0.08 85 1011.7
20260904044157 83 175 4.0 4.0 0.00 0.08 0.08 85 1011.8
20260904043653 83 144 4.0 6.0 0.00 0.08 0.08 85 1011.7
20260904043148 83 122 2.0 3.0 0.00 0.08 0.08 85 1011.8
20260904042644 84 154 2.0 4.0 0.00 0.08 0.08 84 1011.9
20260904042140 83 155 2.0 3.0 0.00 0.08 0.08 84 1011.9
20260904041635 83 170 2.0 4.0 0.00 0.08 0.08 84 1011.8
20260904041131 83 181 4.0 6.0 0.00 0.08 0.08 84 1012.0
20260904040627 83 150 4.0 6.0 0.00 0.08 0.08 84 1011.9
20260904040123 83 152 2.0 7.0 0.00 0.08 0.08 84 1012.0
20260904035619 83 127 2.0 4.0 0.00 0.08 0.08 84 1011.9
20260904035118 83 152 2.0 6.0 0.00 0.08 0.08 83 1012.0
20260904034613 83 126 4.0 6.0 0.00 0.08 0.08 83 1011.9
20260904034108 84 132 2.0 3.0 0.00 0.08 0.08 83 1012.0
20260904033604 84 126 3.0 3.0 0.00 0.08 0.08 83 1011.9
20260904033102 84 178 2.0 4.0 0.00 0.08 0.08 83 1011.8
20260904032602 84 151 4.0 4.0 0.00 0.08 0.08 83 1011.9
20260904032100 84 118 4.0 4.0 0.00 0.08 0.08 83 1011.8
20260904031600 84 154 2.0 3.0 0.00 0.08 0.08 83 1011.8
20260904031056 84 146 1.0 6.0 0.00 0.08 0.08 83 1011.9
20260904030552 84 121 3.0 6.0 0.00 0.08 0.08 83 1011.9
20260904030047 84 138 2.0 7.0 0.00 0.08 0.08 83 1011.8
20260904025543 84 142 3.0 6.0 0.00 0.08 0.08 83 1011.8
20260904025037 84 174 2.0 3.0 0.00 0.08 0.08 83 1011.8
20260904024533 84 126 6.0 8.0 0.00 0.08 0.08 82 1011.8
20260904024028 84 155 3.0 4.0 0.00 0.08 0.08 82 1011.8
20260904023525 84 142 2.0 6.0 0.00 0.08 0.08 82 1011.9
20260904023021 84 148 5.0 7.0 0.00 0.08 0.08 83 1011.9
20260904022520 84 138 3.0 6.0 0.00 0.08 0.08 83 1011.7
20260904022018 84 174 1.0 7.0 0.00 0.08 0.08 83 1011.5
20260904021513 84 142 6.0 8.0 0.00 0.08 0.08 82 1011.3
20260904021008 84 155 5.0 7.0 0.00 0.08 0.08 82 1011.4
20260904020503 84 134 1.0 3.0 0.00 0.08 0.08 82 1011.3
20260904020001 84 152 2.0 3.0 0.00 0.08 0.08 82 1011.3
20260904015457 84 141 3.0 3.0 0.00 0.08 0.08 82 1011.3
20260904014955 84 161 2.0 3.0 0.00 0.08 0.08 82 1011.3
20260904014450 84 161 2.0 4.0 0.00 0.08 0.08 81 1011.2
20260904013946 84 155 2.0 4.0 0.00 0.08 0.08 81 1011.1
20260904013442 84 161 1.0 7.0 0.00 0.08 0.08 81 1011.1
20260904012939 84 143 3.0 4.0 0.00 0.08 0.08 81 1011.1
20260904012438 84 137 3.0 6.0 0.00 0.08 0.08 81 1011.2
20260904011932 85 138 4.0 8.0 0.00 0.08 0.08 81 1010.9
20260904011421 85 129 2.0 4.0 0.00 0.08 0.08 80 1011.0
20260904010917 85 119 2.0 3.0 0.00 0.08 0.08 80 1011.0
20260904010413 85 132 3.0 6.0 0.00 0.08 0.08 80 1011.1
20260904005908 85 143 2.0 3.0 0.00 0.08 0.08 80 1010.8
20260904005403 85 138 2.0 3.0 0.00 0.08 0.08 80 1010.9
20260904004858 85 163 0.0 2.0 0.00 0.08 0.08 80 1011.0
20260904004355 85 122 2.0 4.0 0.00 0.08 0.08 79 1010.8
20260904003855 85 158 1.0 2.0 0.00 0.08 0.08 79 1010.9
20260904003351 85 135 2.0 3.0 0.00 0.08 0.08 79 1011.0
20260904002845 85 164 3.0 4.0 0.00 0.08 0.08 78 1010.9
20260904002342 85 159 1.0 4.0 0.00 0.08 0.08 78 1010.9
20260904001841 85 128 2.0 6.0 0.00 0.08 0.08 78 1011.0
20260904001337 85 131 2.0 2.0 0.00 0.08 0.08 78 1010.9
20260904000832 85 90 1.0 3.0 0.00 0.08 0.08 78 1011.2
20260904000333 85 127 2.0 4.0 0.00 0.08 0.08 77 1011.1
20260903235831 85 48 2.0 3.0 0.00 0.08 0.08 77 1011.3
20260903235327 85 105 2.0 4.0 0.00 0.08 0.08 77 1011.2
20260903234826 85 120 2.0 4.0 0.00 0.08 0.08 77 1011.1
20260903234323 85 140 1.0 7.0 0.00 0.08 0.08 76 1011.0
20260903233819 85 126 2.0 3.0 0.00 0.08 0.08 76 1011.2
20260903233314 85 150 1.0 3.0 0.00 0.08 0.08 76 1011.2
20260903232813 85 166 0.0 1.0 0.00 0.08 0.08 76 1011.1
20260903232309 85 162 1.0 2.0 0.00 0.08 0.08 76 1011.1
20260903231808 85 126 0.0 1.0 0.00 0.08 0.08 75 1011.2
20260903231304 85 157 0.0 3.0 0.00 0.08 0.08 76 1011.2
20260903230800 85 161 0.0 2.0 0.00 0.08 0.08 75 1011.2
20260903230300 84 156 1.0 3.0 0.00 0.08 0.08 75 1011.1
20260903225755 84 164 0.0 2.0 0.00 0.08 0.08 75 1011.0
20260903225252 84 173 1.0 3.0 0.00 0.08 0.08 74 1011.4
20260903224748 84 159 0.0 2.0 0.00 0.08 0.08 74 1011.3
20260903224244 84 78 2.0 3.0 0.00 0.08 0.08 74 1011.3
20260903223739 84 148 0.0 1.0 0.00 0.08 0.08 74 1011.4
20260903223237 84 165 0.0 2.0 0.00 0.08 0.08 75 1011.1
20260903222733 83 153 2.0 2.0 0.00 0.08 0.08 75 1011.0
20260903222232 83 175 0.0 2.0 0.00 0.08 0.08 76 1011.1
20260903221727 83 146 2.0 4.0 0.00 0.08 0.08 76 1011.4
20260903221225 83 223 0.0 4.0 0.00 0.08 0.08 77 1011.5
20260903220724 83 99 4.0 4.0 0.00 0.08 0.08 78 1011.3
20260903220219 83 148 2.0 3.0 0.00 0.08 0.08 79 1011.3
20260903215718 83 99 2.0 3.0 0.00 0.08 0.08 80 1011.3
20260903215213 82 121 2.0 3.0 0.00 0.08 0.08 81 1011.4
20260903214711 82 86 2.0 4.0 0.00 0.08 0.08 84 1011.9
20260903214208 81 343 2.0 3.0 0.00 0.08 0.08 84 1011.8
20260903213702 81 117 2.0 2.0 0.00 0.08 0.08 84 1012.3
20260903213158 81 190 1.0 4.0 0.00 0.08 0.08 84 1012.4
20260903212654 81 283 3.0 3.0 0.00 0.08 0.08 84 1012.5
20260903212150 81 288 2.0 3.0 0.00 0.08 0.08 84 1012.3
20260903211643 81 53 3.0 6.0 0.00 0.08 0.08 83 1012.5
20260903211140 81 55 2.0 3.0 0.00 0.08 0.08 83 1012.6
20260903210635 81 195 1.0 2.0 0.00 0.08 0.08 83 1012.7
20260903210131 81 131 1.0 3.0 0.00 0.08 0.08 82 1012.6
20260903205631 81 81 2.0 8.0 0.00 0.08 0.08 82 1012.4
20260903205130 82 8 5.0 7.0 0.00 0.08 0.08 83 1012.5
20260903204626 81 3 4.0 7.0 0.00 0.08 0.08 83 1012.4
20260903204122 81 44 2.0 6.0 0.00 0.08 0.08 84 1012.6
20260903203612 81 21 4.0 6.0 0.00 0.08 0.08 85 1012.6
20260903203111 81 10 6.0 7.0 0.00 0.08 0.08 85 1012.4
20260903202607 81 347 4.0 6.0 0.00 0.08 0.08 85 1012.1
20260903202102 81 124 4.0 7.0 0.00 0.08 0.08 86 1012.3
20260903201556 80 352 3.0 7.0 0.00 0.08 0.08 87 1012.2
20260903201056 80 293 6.0 10.0 0.00 0.08 0.08 87 1012.2
20260903200551 80 24 4.0 7.0 0.00 0.08 0.08 87 1012.5
20260903200046 80 341 6.0 6.0 0.00 0.08 0.08 87 1012.1
20260903195542 80 202 2.0 4.0 0.00 0.08 0.08 87 1012.2
20260903195037 80 342 5.0 6.0 0.00 0.08 0.08 87 1012.3
20260903194533 80 59 3.0 6.0 0.00 0.08 0.08 87 1012.4
20260903194028 80 158 1.0 4.0 0.00 0.08 0.08 87 1012.6